TimeMST,TemperatureF,Dew PointF,Humidity,Sea Level PressureIn,VisibilityMPH,Wind Direction,Wind SpeedMPH,Gust SpeedMPH,PrecipitationIn,Events,Conditions,WindDirDegrees,DateUTC
12:15 AM,60.8,26.6,27,30.16,10.0,North,23.0,-,N/A,,Clear,10,2013-01-09 07:15:00
12:55 AM,60.8,26.6,27,30.16,10.0,North,24.2,29.9,N/A,,Clear,10,2013-01-09 07:55:00
1:15 AM,59.0,26.6,29,30.17,10.0,North,21.9,-,N/A,,Clear,10,2013-01-09 08:15:00
1:35 AM,59.0,26.6,29,30.16,10.0,NNE,20.7,-,N/A,,Clear,20,2013-01-09 08:35:00
1:55 AM,59.0,28.4,31,30.16,10.0,North,20.7,27.6,N/A,,Clear,10,2013-01-09 08:55:00
2:15 AM,59.0,26.6,29,30.15,10.0,NNE,26.5,32.2,N/A,,Clear,20,2013-01-09 09:15:00
2:35 AM,59.0,28.4,31,30.16,10.0,NNE,27.6,33.4,N/A,,Clear,20,2013-01-09 09:35:00
2:55 AM,59.0,26.6,29,30.17,10.0,NNE,26.5,33.4,N/A,,Clear,20,2013-01-09 09:55:00
3:15 AM,57.2,28.4,33,30.17,10.0,North,25.3,-,N/A,,Clear,10,2013-01-09 10:15:00
3:55 AM,57.2,28.4,33,30.17,10.0,North,21.9,31.1,N/A,,Clear,10,2013-01-09 10:55:00
4:15 AM,57.2,28.4,33,30.17,10.0,North,21.9,29.9,N/A,,Clear,10,2013-01-09 11:15:00
4:35 AM,55.4,28.4,36,30.17,10.0,North,19.6,-,N/A,,Clear,10,2013-01-09 11:35:00
4:55 AM,55.4,28.4,36,30.17,10.0,North,20.7,26.5,N/A,,Clear,10,2013-01-09 11:55:00
5:15 AM,55.4,28.4,36,30.15,10.0,North,27.6,33.4,N/A,,Clear,10,2013-01-09 12:15:00
5:35 AM,55.4,28.4,36,30.15,10.0,NNE,27.6,32.2,N/A,,Clear,20,2013-01-09 12:35:00
5:55 AM,55.4,28.4,36,30.16,10.0,NNE,20.7,27.6,N/A,,Clear,30,2013-01-09 12:55:00
6:35 AM,55.4,28.4,36,30.16,10.0,NNE,21.9,29.9,N/A,,Clear,20,2013-01-09 13:35:00
6:55 AM,55.4,28.4,36,30.16,10.0,NNE,20.7,-,N/A,,Clear,30,2013-01-09 13:55:00
7:15 AM,55.4,28.4,36,30.15,10.0,NNE,23.0,29.9,N/A,,Clear,20,2013-01-09 14:15:00
7:35 AM,55.4,28.4,36,30.16,10.0,NNE,21.9,27.6,N/A,,Clear,20,2013-01-09 14:35:00
7:55 AM,55.4,28.4,36,30.17,10.0,NNE,23.0,27.6,N/A,,Clear,20,2013-01-09 14:55:00
8:15 AM,55.4,28.4,36,30.18,10.0,NNE,21.9,27.6,N/A,,Clear,20,2013-01-09 15:15:00
8:35 AM,53.6,28.4,38,30.20,10.0,NNE,15.0,-,N/A,,Clear,20,2013-01-09 15:35:00
8:55 AM,55.4,28.4,36,30.20,10.0,North,19.6,24.2,N/A,,Clear,10,2013-01-09 15:55:00
9:15 AM,55.4,28.4,36,30.21,10.0,North,18.4,23.0,N/A,,Clear,10,2013-01-09 16:15:00
9:35 AM,55.4,28.4,36,30.21,10.0,NNE,19.6,26.5,N/A,,Clear,20,2013-01-09 16:35:00
9:55 AM,57.2,28.4,33,30.21,10.0,NNE,18.4,24.2,N/A,,Clear,20,2013-01-09 16:55:00
10:15 AM,57.2,28.4,33,30.22,10.0,NNE,19.6,-,N/A,,Clear,20,2013-01-09 17:15:00
10:35 AM,57.2,28.4,33,30.21,10.0,NNE,23.0,27.6,N/A,,Clear,20,2013-01-09 17:35:00
10:55 AM,59.0,28.4,31,30.21,10.0,NNE,16.1,-,N/A,,Clear,20,2013-01-09 17:55:00
11:35 AM,59.0,28.4,31,30.20,10.0,NNE,18.4,23.0,N/A,,Clear,20,2013-01-09 18:35:00
11:55 AM,60.8,28.4,29,30.19,10.0,NNE,17.3,-,N/A,,Clear,20,2013-01-09 18:55:00
12:15 PM,62.6,28.4,27,30.17,10.0,North,17.3,-,N/A,,Clear,10,2013-01-09 19:15:00
12:35 PM,62.6,28.4,27,30.16,10.0,North,15.0,-,N/A,,Clear,360,2013-01-09 19:35:00
12:55 PM,62.6,28.4,27,30.14,10.0,North,15.0,-,N/A,,Clear,10,2013-01-09 19:55:00
1:15 PM,64.4,28.4,26,30.13,10.0,North,13.8,-,N/A,,Clear,350,2013-01-09 20:15:00
1:35 PM,64.4,28.4,26,30.12,10.0,North,12.7,-,N/A,,Clear,10,2013-01-09 20:35:00
1:55 PM,64.4,26.6,24,30.11,10.0,North,11.5,-,N/A,,Clear,360,2013-01-09 20:55:00
2:15 PM,66.2,28.4,24,30.10,10.0,North,9.2,-,N/A,,Clear,360,2013-01-09 21:15:00
2:35 PM,66.2,28.4,24,30.09,10.0,NNW,9.2,-,N/A,,Clear,330,2013-01-09 21:35:00
2:55 PM,66.2,28.4,24,30.09,10.0,NNW,8.1,-,N/A,,Clear,340,2013-01-09 21:55:00
3:15 PM,66.2,28.4,24,30.09,10.0,NNW,5.8,-,N/A,,Clear,330,2013-01-09 22:15:00
3:35 PM,66.2,28.4,24,30.08,10.0,NNW,6.9,-,N/A,,Clear,330,2013-01-09 22:35:00
3:55 PM,66.2,28.4,24,30.08,10.0,NW,5.8,-,N/A,,Clear,320,2013-01-09 22:55:00
4:15 PM,66.2,28.4,24,30.07,10.0,Calm,Calm,-,N/A,,Clear,0,2013-01-09 23:15:00
4:35 PM,66.2,26.6,23,30.07,10.0,Calm,Calm,-,N/A,,Clear,0,2013-01-09 23:35:00
4:55 PM,64.4,28.4,26,30.06,10.0,Calm,Calm,-,N/A,,Clear,0,2013-01-09 23:55:00
5:15 PM,64.4,28.4,26,30.05,10.0,Calm,Calm,-,N/A,,Clear,0,2013-01-10 00:15:00
5:35 PM,64.4,32.0,30,30.05,10.0,Calm,Calm,-,N/A,,Clear,0,2013-01-10 00:35:00
5:55 PM,59.0,32.0,36,30.04,10.0,Calm,Calm,-,N/A,,Clear,0,2013-01-10 00:55:00
6:15 PM,57.2,32.0,38,30.04,10.0,Calm,Calm,-,N/A,,Clear,0,2013-01-10 01:15:00
6:35 PM,57.2,32.0,38,30.03,10.0,Calm,Calm,-,N/A,,Clear,0,2013-01-10 01:35:00
8:15 PM,55.4,32.0,41,30.00,10.0,Calm,Calm,-,N/A,,Clear,0,2013-01-10 03:15:00
8:35 PM,55.4,32.0,41,30.00,10.0,Calm,Calm,-,N/A,,Clear,0,2013-01-10 03:35:00
8:55 PM,53.6,30.2,41,29.99,10.0,Calm,Calm,-,N/A,,Clear,0,2013-01-10 03:55:00
9:15 PM,53.6,28.4,38,29.99,10.0,SSE,3.5,-,N/A,,Clear,160,2013-01-10 04:15:00
9:35 PM,53.6,30.2,41,29.99,10.0,Calm,Calm,-,N/A,,Clear,0,2013-01-10 04:35:00
9:55 PM,51.8,30.2,44,30.00,10.0,Calm,Calm,-,N/A,,Clear,0,2013-01-10 04:55:00
10:15 PM,55.4,28.4,36,29.99,10.0,Calm,Calm,-,N/A,,Clear,0,2013-01-10 05:15:00
10:35 PM,51.8,32.0,47,29.99,10.0,Calm,Calm,-,N/A,,Clear,0,2013-01-10 05:35:00
10:55 PM,53.6,32.0,44,29.98,10.0,Calm,Calm,-,N/A,,Clear,0,2013-01-10 05:55:00
11:15 PM,51.8,32.0,47,29.97,10.0,Calm,Calm,-,N/A,,Clear,0,2013-01-10 06:15:00
11:55 PM,50.0,32.0,50,29.95,10.0,Calm,Calm,-,N/A,,Clear,0,2013-01-10 06:55:00